STARLINK-1646 (46351 NORAD) Tracking and Keplerian Element Data

This shows tracking and keplerian element data for the satellite.

Feedback or suggestion? Click here.




ElementValue
Catalog46351
NameSTARLINK-1646
Epoch Orbit1422
Epoch Day333.08334491
Epoch Year2020
RAAN245.5325
Inclination53.2245
Eccentricity0.000199
Argument of Perigee57.3252
Mean Anonmoly319.061
Mean Motion15.39777542
Decay Rate1.904E-05
L11 46351U 20062AC 20333.08334491 .00001904 00000-0 57308-4 0 9993
L22 46351 53.2245 245.5325 0001990 57.3252 319.0610 15.39777542 14220

Live tracking and technical data element details for STARLINK-1646 (NORAD 46351). STARLINK-1646 can be tracked NOW for your location showing map with azimuth and elevation plus other details from your city location.

Track the satellite on the map from your city or location and see movement details for azimuth, elevation, latitude, longitude, range, height, and movement on the map or in text.







IsCatalogInMostPopularTable: catalog: 46351, numindb: 23
Update: records affected: 1



GetName: 46351 STARLINK-1646

Hit Count: updated at: Sun, 29 Nov 2020 09:48:09 GMT